Back to catalog

HULIANWANG DIGUI-28

AliveCommunicationsPO
NORAD 63695·PAYLOAD·🇨🇳 China

Launched Apr 28, 2025 from Wenchang Space Launch Site

Loading…

Next Passes (next 24 hours)

TLE

FreshSource: Space-Track

Epoch: Sep 14, 2026, 14:48 UTC

1 63695U 25086J   26257.61732447  .00000047  00000-0  75087-4 0  9998
2 63695  86.4944 282.7772 0001907  81.1342 279.0008 13.24414338 66693

Track HULIANWANG DIGUI-28 in real time with AllMySat

Download on the App Store